Pascagoula, MS

2:14 AM CDT on April 20, 2018 (GMT -0500)
Lott International

Weather History for KPQL - December, 2012

Change the Weather History Date:

Sunday, December 2, 2012

  Actual Average Record
Temperature  
Mean Temperature 60 °F -  
Max Temperature 75 °F 66 °F 80 °F (1985)
Min Temperature 46 °F 47 °F 28 °F (1960)
Degree Days  
Heating Degree Days 4    
Growing Degree Days 10 (Base 50)    
Moisture  
Dew Point 51 °F    
Average Humidity 91    
Maximum Humidity 100    
Minimum Humidity 46    
Precipitation  
Precipitation 0.00 in - - ()
Sea Level Pressure  
Sea Level Pressure 30.25 in    
Wind  
Wind Speed 1 mph (SSE)    
Max Wind Speed 9 mph    
Max Gust Speed -    
Visibility 3 miles    
Events Fog    
Averages and records for this station are not official NWS values.
T = Trace of Precipitation, MM = Missing Value Source: NWS Daily Summary

Daily Weather History Graph

Daily Weather History Graph

Search for Another Location

Airport or City:

Astronomy

Dec. 02, 2012 Rise Set
Actual Time 6:34 AM CST 4:52 PM CST
Civil Twilight 6:08 AM CST 5:19 PM CST
Nautical Twilight 5:38 AM CST 5:48 PM CST
Astronomical Twilight 5:09 AM CST 6:17 PM CST
Moon 8:33 PM CST (12/2) 9:29 AM CST (12/2)
Length of Visible Light 11h 10m
Length of Day
10h 18m
Waning Gibbous, 85% of the Moon is Illuminated
Dec 2
Waning Gibbous
Dec 6
Last Quarter
Dec 13
New
Dec 19
First Quarter
Dec 28
Full

Hourly Weather History & Observations

Time (CST) Temp. Dew Point Humidity Pressure Visibility Wind Dir Wind Speed Gust Speed Precip Events Conditions
12:23 AM 51.8 °F 50.0 °F 94% 30.24 in 0.2 mi Calm Calm - N/A Fog Fog
12:32 AM 51.8 °F 50.0 °F 94% 30.24 in 0.2 mi Calm Calm - N/A Fog Fog
12:53 AM 51.1 °F 50.0 °F 96% 30.24 in 0.5 mi Calm Calm - N/A Fog Fog
12:59 AM 51.8 °F 50.0 °F 94% 30.23 in 2.5 mi Calm Calm - N/A   Overcast
1:04 AM 51.8 °F 51.8 °F 100% 30.23 in 0.8 mi Calm Calm - N/A   Overcast
1:15 AM 50.0 °F 50.0 °F 100% 30.24 in 0.2 mi Calm Calm - N/A Fog Fog
1:34 AM 50.0 °F 48.2 °F 94% 30.24 in 0.5 mi Calm Calm - N/A Fog Fog
1:39 AM 50.0 °F 48.2 °F 94% 30.23 in 0.2 mi Calm Calm - N/A Fog Fog
1:53 AM 50.0 °F 48.9 °F 96% 30.24 in 0.2 mi Calm Calm - N/A Fog Fog
2:03 AM 50.0 °F 48.2 °F 94% 30.23 in 0.5 mi Calm Calm - N/A Fog Fog
2:50 AM 48.2 °F 48.2 °F 100% 30.24 in 1.2 mi Calm Calm - N/A   Overcast
2:53 AM 48.9 °F 48.0 °F 97% 30.25 in 0.8 mi Calm Calm - N/A   Mist
3:08 AM 48.2 °F 48.2 °F 100% 30.24 in 0.2 mi Calm Calm - N/A Fog Fog
3:18 AM 48.2 °F 46.4 °F 93% 30.24 in 0.2 mi Calm Calm - N/A Fog Fog
3:34 AM 48.2 °F 46.4 °F 93% 30.24 in 0.2 mi Calm Calm - N/A Fog Fog
3:44 AM 48.2 °F 48.2 °F 100% 30.24 in 0.5 mi Calm Calm - N/A Fog Fog
3:53 AM 48.9 °F 48.0 °F 97% 30.25 in 0.5 mi Calm Calm - N/A Fog Fog
4:27 AM 48.2 °F 46.4 °F 93% 30.25 in 1.2 mi Calm Calm - N/A   Overcast
4:40 AM 46.4 °F 46.4 °F 100% 30.25 in 2.5 mi Calm Calm - N/A   Overcast
4:53 AM 48.0 °F 46.9 °F 96% 30.26 in 1.0 mi Calm Calm - N/A   Mist
5:00 AM 46.4 °F 46.4 °F 100% 30.26 in 0.8 mi Calm Calm - N/A   Mist
5:29 AM 46.4 °F 46.4 °F 100% 30.26 in 2.0 mi Calm Calm - N/A   Overcast
5:36 AM 46.4 °F 46.4 °F 100% 30.27 in 1.5 mi Calm Calm - N/A   Overcast
5:46 AM 46.4 °F 46.4 °F 100% 30.27 in 3.0 mi Calm Calm - N/A   Overcast
5:48 AM 46.4 °F 46.4 °F 100% 30.27 in 1.5 mi Calm Calm - N/A   Overcast
5:53 AM 46.9 °F 46.0 °F 97% 30.27 in 0.5 mi Calm Calm - N/A Fog Fog
6:00 AM 46.4 °F 46.4 °F 100% 30.27 in 0.2 mi Calm Calm - N/A Fog Fog
6:27 AM 50.0 °F 48.2 °F 94% 30.28 in 0.5 mi Calm Calm - N/A Fog Fog
6:37 AM 48.2 °F 48.2 °F 100% 30.28 in 0.2 mi Calm Calm - N/A Fog Fog
6:53 AM 48.9 °F 48.0 °F 97% 30.29 in 0.2 mi Calm Calm - N/A Fog Fog
7:27 AM 55.4 °F 55.4 °F 100% 30.29 in 1.5 mi Calm Calm - N/A   Partly Cloudy
7:29 AM 55.4 °F 55.4 °F 100% 30.29 in 4.0 mi Calm Calm - N/A   Clear
7:53 AM 59.0 °F 57.9 °F 96% 30.31 in 10.0 mi Calm Calm - N/A   Mostly Cloudy
8:53 AM 66.0 °F 60.1 °F 81% 30.31 in 10.0 mi East 3.5 mph - N/A   Clear
9:53 AM 72.0 °F 60.1 °F 66% 30.31 in 10.0 mi Variable 4.6 mph - N/A   Partly Cloudy
10:53 AM 75.0 °F 57.9 °F 55% 30.30 in 10.0 mi SSE 9.2 mph - N/A   Partly Cloudy
11:53 AM 75.9 °F 55.9 °F 50% 30.27 in 10.0 mi South 9.2 mph - N/A   Clear
12:53 PM 75.9 °F 54.0 °F 46% 30.25 in 10.0 mi SSW 8.1 mph - N/A   Partly Cloudy
1:53 PM 75.9 °F 55.0 °F 48% 30.23 in 10.0 mi SE 9.2 mph - N/A   Partly Cloudy
2:53 PM 75.0 °F 55.0 °F 50% 30.22 in 10.0 mi SSE 6.9 mph - N/A   Clear
3:53 PM 73.0 °F 55.9 °F 55% 30.22 in 10.0 mi SSE 6.9 mph - N/A   Clear
4:53 PM 66.9 °F 57.0 °F 70% 30.23 in 10.0 mi South 4.6 mph - N/A   Clear
5:53 PM 57.9 °F 55.0 °F 90% 30.24 in 10.0 mi Calm Calm - N/A   Clear
6:53 PM 55.0 °F 54.0 °F 96% 30.24 in 8.0 mi Calm Calm - N/A   Clear
7:14 PM 55.4 °F 53.6 °F 94% 30.24 in 1.8 mi Calm Calm - N/A   Clear
7:17 PM 53.6 °F 53.6 °F 100% 30.24 in 0.8 mi Calm Calm - N/A   Mist
7:29 PM 55.4 °F 53.6 °F 94% 30.24 in 1.2 mi Calm Calm - N/A   Clear
7:31 PM 55.4 °F 53.6 °F 94% 30.24 in 3.0 mi Calm Calm - N/A   Clear
7:37 PM 51.8 °F 51.8 °F 100% 30.24 in 1.8 mi Calm Calm - N/A   Clear
7:50 PM 53.6 °F 53.6 °F 100% 30.24 in 0.8 mi Calm Calm - N/A   Mist
7:53 PM 53.1 °F 53.1 °F 100% 30.25 in 0.5 mi Calm Calm - N/A Fog Fog
8:00 PM 51.8 °F 51.8 °F 100% 30.24 in 0.2 mi Calm Calm - N/A Fog Fog
8:53 PM 54.0 °F 52.0 °F 93% 30.25 in 0.2 mi Calm Calm - N/A Fog Fog
9:08 PM 51.8 °F 51.8 °F 100% 30.24 in 1.0 mi Calm Calm - N/A   Mist
9:18 PM 53.6 °F 51.8 °F 94% 30.24 in 0.5 mi Calm Calm - N/A Fog Fog
9:33 PM 53.6 °F 53.6 °F 100% 30.23 in 0.2 mi Calm Calm - N/A Fog Fog
9:53 PM 50.0 °F 48.9 °F 96% 30.24 in 0.2 mi Calm Calm - N/A Fog Fog
10:22 PM 51.8 °F 51.8 °F 100% 30.23 in 0.5 mi Calm Calm - N/A Fog Fog
10:36 PM 51.8 °F 51.8 °F 100% 30.23 in 0.2 mi Calm Calm - N/A Fog Fog
10:53 PM 50.0 °F 50.0 °F 100% 30.24 in 0.2 mi Calm Calm - N/A Fog Fog
11:53 PM 48.9 °F 48.9 °F 100% 30.23 in 0.2 mi Calm Calm - N/A Fog Fog